Вернуться в каталог

CZ-6A DEB

АктивенPO
NORAD 60635·DEBRIS·🇨🇳 China

Запущен Aug 6, 2024 с Taiyuan Satellite Launch Center

Loading…

Ближайшие Пролёты (ближайшие 24 часа)

TLE

СвежийSource: Space-Track

Эпоха: Sep 14, 2026, 09:52 UTC

1 60635U 24140AL  26257.41179072  .00000439  00000-0  27002-3 0  9994
2 60635  88.7909 249.7219 0149492   2.8986 357.3022 13.98515509107207

Отслеживайте CZ-6A DEB в реальном времени с AllMySat

Download on the App Store